Location: La Oliva
(42.2466°N, 2.9955°E)
Time: 08:23:20
(UTC+00:00)

SL-16 R/B - Pass Details

Date: 22 April 2021
Orbit: 840 x 849 km, 71.0° (Epoch: 07 May)

Event Time Altitude Azimuth Distance (km) Brightness Sun altitude
Rises 19:32:42 0° 346° (NNW) 3,421 6.0 -10.3°
Reaches altitude 10° 19:35:54 10° 3° (N) 2,481 5.0 -10.8°
Maximum altitude 19:39:57 20° 49° (NE) 1,887 3.8 -11.4°
Enters shadow 19:43:25 12° 90° (E) 2,332 4.0 -12.0°
